Regional Weather Roundup
Issued by NWS

Home | Current Version | Previous Version | Graphics & Text | Print | Product List | Glossary On
Versions: 1 2 3 4 5 6 7 8 9 10 11 12 13 14 15 16 17 18 19 20 21 22 23 24 25 26 27 28 29 30 31 32 33 34 35 36 37 38 39 40 41 42 43 44 45 46 47 48 49 50
000
ASUS43 KOAX 291302
RWRNE

WEATHER ROUNDUP FOR NEBRASKA
NATIONAL WEATHER SERVICE OMAHA NE
800 AM CDT SUN MAR 29 2015

NOTES: SATELLITE DATA IS BEING USED TO AUGMENT CLOUD COVER ABOVE
       12000 FEET.
       "FAIR" INDICATES FEW OR NO CLOUDS BELOW 12,000 FEET WITH NO
       SIGNIFICANT WEATHER AND/OR OBSTRUCTIONS TO VISIBILITY.

  * THESE STATIONS DO NOT REPORT WEATHER SUCH AS RAIN...SNOW OR FOG.

NEZ001>004-019>022-054>056-291400-
NEBRASKA PANHANDLE

CITY           SKY/WX    TMP DP  RH WIND       PRES   REMARKS
SCOTTSBLUFF    CLEAR     44  29  55 NW26G33   30.20R
ALLIANCE       CLEAR     44  28  53 NW24G35   30.14R
CHADRON        CLEAR     44  30  57 W18G29    30.17R
SIDNEY         CLEAR     43  27  53 N26G36    30.20R
$$

NEZ057>060-069>072-079>082-291400-
SOUTHWEST NEBRASKA

CITY           SKY/WX    TMP DP  RH WIND       PRES   REMARKS
NORTH PLATTE   CLEAR     48  24  39 NW20      30.05R
IMPERIAL         N/A     46  20  35 W14       30.12R
MCCOOK         PTCLDY    54  22  28 NW26G33   30.04R
$$

NEZ005>010-023>029-035>040-094-291400-
NORTH CENTRAL NEBRASKA

CITY           SKY/WX    TMP DP  RH WIND       PRES   REMARKS
VALENTINE      MOCLDY    48  34  58 NW29G41   30.02R
AINSWORTH      CLOUDY    49  34  56 NW36G47   30.01R
BROKEN BOW     CLEAR     50  28  42 NW32G43   29.99R
ORD            PTCLDY    50  33  52 NW28G38   29.95R
$$

NEZ041-046>049-061>064-073>077-083>087-291400-
SOUTH CENTRAL NEBRASKA

CITY           SKY/WX    TMP DP  RH WIND       PRES   REMARKS
GRAND ISLAND   PTCLDY    42  34  73 W7        29.95R
AURORA         MOCLDY    45  37  74 NW8       29.94R
HASTINGS       MOCLDY    45  35  68 NW10      29.95R
HEBRON         CLOUDY    44  39  82 W3        29.94R
KEARNEY *      PTCLDY    43  32  65 NW10      29.98R
$$

NEZ011>018-030>034-042>045-291400-
NORTHEAST NEBRASKA

CITY           SKY/WX    TMP DP  RH WIND       PRES   REMARKS
NORFOLK        PTCLDY    46  37  71 W13       29.86R
ALBION         PTCLDY    40  32  71 NW12G18   29.91R WCI  33
BLAIR          CLOUDY    42  35  77 SW10      29.87R
COLUMBUS *     MOCLDY    41  32  70 W7        29.91R
TEKAMAH        CLOUDY    43  35  73 SW9       29.86R
$$

NEZ050>053-065>068-078-088>093-291400-
SOUTHEAST NEBRASKA

CITY           SKY/WX    TMP DP  RH WIND       PRES   REMARKS
LINCOLN        CLOUDY    42  37  82 S5        29.92R HAZE
OMAHA EPPLEY   CLOUDY    42  35  76 S6        29.89R
FALLS CITY     MOCLDY    42  36  79 SE5       29.94S
NEBRASKA CITY  CLOUDY    41  36  81 S10       29.91S
$$

NEZ044-045-051>053-067-291400-
OMAHA AREA

CITY           SKY/WX    TMP DP  RH WIND       PRES   REMARKS
OMAHA EPPLEY   CLOUDY    42  35  76 S6        29.89R
BLAIR          CLOUDY    42  35  77 SW10      29.87R
OFFUTT AFB     CLOUDY    41  35  80 VRB5      29.89R
WAHOO          FAIR      42  35  78 SW7       29.88S
$$



USA.gov is the U.S. government's official web portal to all federal, state and local government web resources and services.